Location: Tierra del Sol
(32.6128°N, 116.3319°W)
Time: 19:36:09
(UTC-07:00)

Tiangong 2 - Pass Details

Date: 11 October 2017
Orbit: 388 x 391 km, 42.8° (Epoch: 22 October)

Event Time Altitude Azimuth Distance (km) Brightness Sun altitude
Exits shadow 06:15:48 - 305° (NW) 1,680 3.8 -7.3°
Reaches altitude 10° 06:16:47 10° 317° (NW) 1,420 3.5 -7.1°
Maximum altitude 06:18:38 14° 353° (N) 1,190 3.4 -6.7°
Drops below altitude 10° 06:20:29 10° 28° (NNE) 1,422 4.3 -6.3°
Sets 06:23:17 0° 55° (NE) 2,278 5.9 -5.7°
